OBJECT P, 61907

Orbit data source: Space-Track

You're viewing an Uncataloged Satellite

Recently launched and/or uncataloged satellites may have evolving metadata. Metadata may include but not limited to: Owner, Maufacturer, Bus, Motor, and Mission.

OBJECT P, 61907 is a Chinese satellite in SSO that was launched on Mon, 11 Nov 2024 UTC via a LIJIAN-1 launch vehicle from the Jiuquan Satellite Launch Center, China (JSC). Unknown objects in Earth's orbit typically refer to objects detected orbiting the Earth but have not yet been identified or cataloged. These objects could be anything from previously untracked satellites, spent rocket stages, debris from satellite collisions, or even natural meteoroids temporarily captured by Earth's gravity.

Loading next visibility...
Identifier
61907, 2024-205P
Orbit
SSO
Last TLE update
4 hours ago
Origin
Flag of CNTLCJ/JUNT (CN / PRC)
Manufacturer
JUNT
Mission
Operational Commercial Imaging
Bus & Motor
CUBESAT 6U?, Unknown motor
Mass
~12 kg wet, ~12 kg dry
Launch date (UTC)
2024-11-11 (8 months ago)
Launch vehicle
LIJIAN-1
Launch site
Jiuquan Satellite Launch Center, China (JSC)
Object type
Unknown
Shape & HBR
Box, 0.3 m
Radar Cross Section
0.035 m², Medium (>0.1 m² and < 1m²)

Expand to show TLE details & history

TLE from 4 hours ago
0 OBJECT P
1 61907U 24205P   25182.17227171  .00004824  00000-0  25400-3 0  9994
2 61907  97.4515 256.3989 0013843 197.0802 162.9966 15.16006027 35111
Epoch: 2025-07-01T04:08Z
TLE epoch observation values (Epoch: 2025-07-01T04:08:04.275Z)
Latitude
-0.00012°
Longitude
-85.09044°
Altitude
530.142 km
Speed
7.593 km/s
True Right ascension
17h 05m 35s
True Declination
0° 00' 00"
Sunlit
Object was in full shadow at epoch
Visualization orbit readout
Latitude
-76.1116°
Longitude
63.3457°
Altitude
540.867 km
Speed
7.593 km/s
Apparent Right ascension
06h 56m 24s
Apparent Declination
-62° 47' 11"
Sunlit
Object is in daylight
Visualization observer readout
Local Sidereal Time
20:04:22
Azimuth
161.586° S
Elevation
-64.968°
Doppler factor
1
Orbital elements
Apogee altitude
524.441 km
Perigee altitude
505.357 km
Semi-major axis
6,893.036 km
Eccentricity
0.00138
Inclination
97.4515°
RAAN
256.3989°
Arg. of periapsis
197.0802°
True anomaly
Unknown
Mean anomaly
162.9966°
Eccentric anomaly
Unknown
Mean motion
3.79252 °/min
Orbital period
94.92 mins
BSTAR
0.000254
Loading maneuver chart data...
Loading SW <> Apogee altitude chart data...
Loading historical data...
Loading historical data...
Loading historical data...
Loading historical data...
Loading historical data...
Loading historical data...
Loading historical data...

OBJECT P Visibility forecast

Observer location: undefined°, undefined°

Span
Click to sort rows by Start time (UTC) header in descending order
Start Az.
Max El. time (UTC)
Max El. Az.
Max El.
End time (UTC)
End Az.
6 mins2025-07-01 17:22:15.434Z29.764° NE2025-07-01 17:25:15.434Z84.612° E30.811°2025-07-01 17:28:15.434Z161.568° S
5 mins2025-07-02 05:37:15.434Z216.287° SW2025-07-02 05:39:15.434Z266.5° W26.566°2025-07-02 05:42:15.434Z323.82° NNW
|